Location: Canyon City
(32.5951°N, 116.5278°W)
Time: 03:18:24
(UTC+00:00)

SL-16 R/B - Pass Details

Date: 08 September 2024
Orbit: 985 x 1006 km, 99.7° (Epoch: 10 October)

Event Time Altitude Azimuth Distance (km) Brightness Sun altitude
Exits shadow 12:28:52 10° 289° (WNW) 2,755 4.4 -12.6°
Drops below altitude 10° 12:28:55 10° 290° (WNW) 2,760 4.4 -12.6°
Sets 12:33:22 0° 319° (NW) 3,720 5.3 -11.7°
